Location: Ailly
(50.0793°N, 1.9944°E)
Time: 15:05:14
(UTC+00:00)

Meteor 1-24 Rocket - Pass Details

Date: 15 January 2026
Orbit: 790 x 925 km, 81.3° (Epoch: 10 February)

Event Time Altitude Azimuth Distance (km) Brightness Sun altitude
Rises 06:17:13 0° 348° (NNW) 3,566 6.7 -13.6°
Reaches altitude 10° 06:19:42 10° 351° (N) 2,628 6.0 -13.2°
Maximum altitude 06:25:44 72° 76° (ENE) 975 4.2 -12.3°
Drops below altitude 10° 06:31:44 10° 161° (SSE) 2,611 6.8 -11.4°
Sets 06:34:12 0° 163° (SSE) 3,541 7.5 -11.0°
